Regional Weather Roundup
Issued by NWS New Orleans/Baton Rouge, LA

Home | Current Version | Previous Version | Text Only | Print | Product List | Glossary On
Versions: 1 2 3 4 5 6 7 8 9 10 11 12 13 14 15 16 17 18 19 20 21 22 23 24 25 26 27 28 29 30 31 32 33 34 35 36 37 38 39 40 41 42 43 44 45 46 47 48 49 50
000
ASUS44 KLIX 200101
RWRLIX
NEW ORLEANS REGIONAL WEATHER ROUNDUP
NATIONAL WEATHER SERVICE NEW ORLEANS LA
800 PM CDT SAT APR 19 2014

NOTE: "FAIR" INDICATES FEW OR NO CLOUDS BELOW 12,000 FEET WITH NO
      SIGNIFICANT WEATHER AND/OR OBSTRUCTIONS TO VISIBILITY.
      SKY/WX - SKY CONDITION AND SIGNIFICANT WEATHER.
      TMP - AIR TEMPERATURE.     DP    - DEWPOINT TEMPERATURE.
      RH  - RELATIVE HUMIDITY.   PRES  - PRESSURE.
      HI  - HEAT INDEX.          WCI   - WIND CHILL INDEX.

*  THESE STATIONS ARE NOT NWS OR FAA STATIONS AND ARE NOT UNDER
   NWS QUALITY CONTROL.

LAZ038-040-048-061>063-065>067-069-200200-
SOUTHEAST LOUISIANA

CITY           SKY/WX    TMP DP  RH WIND       PRES   REMARKS
N.O. AUDUBON     N/A     72  52  50 MISG        N/A
N.O. INTL ARPT PTCLDY    73  53  49 NW5       30.09S
N.O. LAKEFRONT CLEAR     70  61  73 W6        30.10R
N.O. DOWNTOWN*   N/A     75  48  38 CALM      30.10S
SLIDELL        CLEAR     67  56  67 CALM      30.09R
BATON ROUGE    CLEAR     71  53  52 W3        30.10R
BOOTHVILLE     CLEAR     67  61  81 W7        30.10R
BELLE CHASSE   PTCLDY    64  55  72 CALM      30.09R
BOGALUSA*        N/A     68  55  62 N3        30.11R
GALLIANO*      NOT AVBL
NEW ROADS*     NOT AVBL
GONZALES*        N/A     68  58  72 CALM      30.09S
HAMMOND*       NOT AVBL
HOUMA*         NOT AVBL
PORT FOURCHON* CLEAR     68  59  73 W8        30.13R

$$

MSZ070-080>082-200200-
SOUTHERN MISSISSIPPI

CITY           SKY/WX    TMP DP  RH WIND       PRES   REMARKS
MCCOMB         CLEAR     68  51  54 CALM      30.11R
GULFPORT       CLEAR     72  53  51 N6        30.08R
BILOXI         NOT AVBL
PASCAGOULA     CLEAR     64  57  78 CALM      30.07R
STENNIS ARPT*  CLEAR     64  55  72 CALM      30.09R

$$

COASTAL OBSERVATIONS
LAKE AND NEARSHORE STATIONS

STATION/POSITION TIME  TEMP    WIND        PRES    WAVE
                       AIR SEA DIR/SP/G            HT/PER
                 (UTC) (F)     (DEG/KT/KT) (MB)    (FT/S)
PASCAGOULA       0000   74     340/  5/  6 1017.5
WAVELAND YACHT   0000   73 70  340/  5/  6 1017.9
GRAND ISLE       0000   69 68  230/  4/  6 1019.7
SOUTHWEST PASS   0000   66 59  290/  7/ 11 1019.3
NEW CANAL        0000   74 67  270/  3/  4 1019.4
SHELL BEACH      0000   72 66  300/  6/  6 1018.7

OFFSHORE STATIONS

STATION/POSITION TIME  TEMP    WIND        PRES    WAVE
                       AIR SEA DIR/SP/G            HT/PER
                 (UTC) (F)     (DEG/KT/KT) (MB)    (FT/S)
64 S DAUPHIN ISL 0050   69 71  300/ 14/ 16 1018.8

$$




USA.gov is the U.S. government's official web portal to all federal, state and local government web resources and services.